ACI141 YSSY-NWWW

Flight info

Callsign ACI141
Flight time 2h 20m
Altitude 39000
Route NOBAR B580 POXAK POXAK2
Aircraft A339/H-SADE1E2E3GHIJ1J3J5M1P2RWXY/LB2D1

Departure

Time 2026-05-05 11:26
Airport Sydney Kingsford Smith International Airport (YSSY)

Arrival

Time 2026-05-05 13:46
Airport La Tontouta International Airport (NWWW)
Time Latitude Longitude Altitude Speed Heading
2026-05-05 10:45 -33.93892 151.16861 37 ft 0 kts 74°
2026-05-05 11:10 -33.93892 151.16859 37 ft 1 kts 74°
2026-05-05 11:10 -33.93896 151.16841 37 ft 2 kts 74°
2026-05-05 11:10 -33.93900 151.16824 37 ft 2 kts 74°
2026-05-05 11:10 -33.93905 151.16806 37 ft 2 kts 82°
2026-05-05 11:11 -33.93904 151.16788 37 ft 2 kts 107°
2026-05-05 11:11 -33.93898 151.16772 37 ft 2 kts 127°
2026-05-05 11:11 -33.93887 151.16759 37 ft 2 kts 146°
2026-05-05 11:11 -33.93876 151.16753 37 ft 0 kts 163°
2026-05-05 11:12 -33.93885 151.16756 37 ft 4 kts 161°
2026-05-05 11:12 -33.93927 151.16769 37 ft 5 kts 165°
2026-05-05 11:12 -33.93947 151.16775 37 ft 0 kts 165°
2026-05-05 11:12 -33.93950 151.16777 37 ft 0 kts 164°
2026-05-05 11:16 -33.93956 151.16779 37 ft 1 kts 164°
2026-05-05 11:16 -33.93979 151.16786 37 ft 5 kts 165°
2026-05-05 11:17 -33.94019 151.16800 37 ft 7 kts 165°
2026-05-05 11:17 -33.94056 151.16852 37 ft 9 kts 97°
2026-05-05 11:17 -33.94042 151.16936 37 ft 11 kts 71°
2026-05-05 11:17 -33.94017 151.17030 37 ft 12 kts 73°
2026-05-05 11:18 -33.93991 151.17137 37 ft 13 kts 75°
2026-05-05 11:18 -33.93969 151.17235 37 ft 8 kts 74°
2026-05-05 11:18 -33.93966 151.17248 37 ft 0 kts 74°
2026-05-05 11:19 -33.93962 151.17264 37 ft 3 kts 74°
2026-05-05 11:19 -33.93943 151.17343 37 ft 21 kts 74°
2026-05-05 11:19 -33.93900 151.17532 37 ft 23 kts 75°
2026-05-05 11:20 -33.93859 151.17702 37 ft 13 kts 76°
2026-05-05 11:20 -33.93899 151.17778 37 ft 12 kts 159°
2026-05-05 11:20 -33.93996 151.17804 37 ft 16 kts 168°
2026-05-05 11:20 -33.94122 151.17833 37 ft 19 kts 169°
2026-05-05 11:21 -33.94255 151.17870 37 ft 19 kts 167°
2026-05-05 11:21 -33.94389 151.17903 37 ft 19 kts 169°
2026-05-05 11:21 -33.94511 151.17880 37 ft 15 kts 187°
2026-05-05 11:21 -33.94621 151.17908 37 ft 16 kts 166°
2026-05-05 11:22 -33.94735 151.17938 37 ft 17 kts 168°
2026-05-05 11:22 -33.94865 151.17970 37 ft 19 kts 168°
2026-05-05 11:22 -33.94999 151.18004 37 ft 19 kts 168°
2026-05-05 11:22 -33.95100 151.18072 37 ft 16 kts 108°
2026-05-05 11:23 -33.95083 151.18205 37 ft 16 kts 77°
2026-05-05 11:23 -33.95062 151.18327 37 ft 13 kts 78°
2026-05-05 11:23 -33.95044 151.18436 37 ft 9 kts 78°
2026-05-05 11:23 -33.95033 151.18494 37 ft 6 kts 77°
2026-05-05 11:24 -33.95019 151.18573 37 ft 12 kts 78°
2026-05-05 11:24 -33.95000 151.18681 37 ft 13 kts 78°
2026-05-05 11:24 -33.94986 151.18796 37 ft 12 kts 104°
2026-05-05 11:24 -33.95056 151.18855 37 ft 12 kts 163°
2026-05-05 11:25 -33.95152 151.18884 37 ft 23 kts 167°
2026-05-05 11:25 -33.95564 151.18986 37 ft 93 kts 167°
2026-05-05 11:25 -33.96395 151.19200 40 ft 149 kts 169°
2026-05-05 11:25 -33.97457 151.19472 503 ft 158 kts 170°
2026-05-05 11:26 -33.98459 151.19992 1067 ft 164 kts 133°
2026-05-05 11:26 -33.99081 151.21141 1693 ft 167 kts 122°
2026-05-05 11:26 -33.99691 151.22368 2182 ft 178 kts 123°
2026-05-05 11:26 -34.00381 151.23692 2599 ft 195 kts 127°
2026-05-05 11:27 -34.01292 151.24985 3018 ft 212 kts 139°
2026-05-05 11:27 -34.02443 151.26172 3465 ft 229 kts 142°
2026-05-05 11:27 -34.03737 151.27428 3948 ft 247 kts 142°
2026-05-05 11:27 -34.05124 151.28767 4438 ft 262 kts 142°
2026-05-05 11:28 -34.06559 151.30164 5007 ft 267 kts 142°
2026-05-05 11:28 -34.07989 151.31560 5792 ft 269 kts 142°
2026-05-05 11:28 -34.09446 151.32993 6591 ft 270 kts 143°
2026-05-05 11:28 -34.10865 151.34482 7241 ft 275 kts 132°
2026-05-05 11:29 -34.11742 151.36540 7814 ft 287 kts 104°
2026-05-05 11:29 -34.11741 151.38936 8472 ft 296 kts 77°
2026-05-05 11:29 -34.10806 151.41148 9226 ft 300 kts 50°
2026-05-05 11:29 -34.09409 151.42970 10012 ft 299 kts 46°
2026-05-05 11:30 -34.07967 151.44798 10626 ft 305 kts 46°
2026-05-05 11:30 -34.06329 151.46498 11127 ft 315 kts 33°
2026-05-05 11:30 -34.04350 151.47653 11676 ft 320 kts 18°
2026-05-05 11:30 -34.02191 151.48401 11963 ft 335 kts 14°
2026-05-05 11:31 -33.99868 151.49127 12251 ft 351 kts 14°
2026-05-05 11:31 -33.97434 151.49892 12549 ft 368 kts 14°
2026-05-05 11:31 -33.94925 151.50694 12931 ft 377 kts 14°
2026-05-05 11:31 -33.92400 151.51526 13481 ft 383 kts 16°
2026-05-05 11:32 -33.89981 151.52910 14097 ft 387 kts 35°
2026-05-05 11:32 -33.88025 151.55170 14709 ft 392 kts 52°
2026-05-05 11:32 -33.86563 151.57951 15098 ft 404 kts 59°
2026-05-05 11:32 -33.85144 151.60908 15646 ft 411 kts 60°
2026-05-05 11:33 -33.83698 151.63902 16356 ft 414 kts 59°
2026-05-05 11:33 -33.82238 151.66866 17024 ft 416 kts 58°
2026-05-05 11:33 -33.80744 151.69850 17645 ft 421 kts 57°
2026-05-05 11:33 -33.79182 151.72844 18280 ft 424 kts 55°
2026-05-05 11:34 -33.77475 151.75735 18929 ft 427 kts 51°
2026-05-05 11:34 -33.75652 151.78502 19504 ft 430 kts 49°
2026-05-05 11:34 -33.73777 151.81284 20075 ft 434 kts 49°
2026-05-05 11:34 -33.71860 151.84116 20664 ft 438 kts 49°
2026-05-05 11:35 -33.69934 151.86960 21212 ft 441 kts 48°
2026-05-05 11:35 -33.67997 151.89822 21760 ft 444 kts 48°
2026-05-05 11:35 -33.66043 151.92706 22292 ft 448 kts 48°
2026-05-05 11:35 -33.64080 151.95602 22782 ft 452 kts 47°
2026-05-05 11:36 -33.62088 151.98538 23276 ft 455 kts 47°
2026-05-05 11:36 -33.60092 152.01479 23751 ft 459 kts 47°
2026-05-05 11:36 -33.58088 152.04434 24213 ft 463 kts 47°
2026-05-05 11:36 -33.56030 152.07466 24672 ft 466 kts 47°
2026-05-05 11:37 -33.53999 152.10457 25102 ft 469 kts 46°
2026-05-05 11:37 -33.51915 152.13519 25544 ft 473 kts 46°
2026-05-05 11:37 -33.49848 152.16554 25950 ft 476 kts 46°
2026-05-05 11:37 -33.47765 152.19612 26355 ft 478 kts 45°
2026-05-05 11:38 -33.45653 152.22708 26750 ft 481 kts 45°
2026-05-05 11:38 -33.43528 152.25824 27143 ft 484 kts 45°
2026-05-05 11:38 -33.41393 152.28949 27506 ft 487 kts 45°
2026-05-05 11:38 -33.39263 152.32069 28006 ft 487 kts 45°
2026-05-05 11:39 -33.37140 152.35179 28570 ft 484 kts 44°
2026-05-05 11:39 -33.35009 152.38294 29103 ft 483 kts 44°
2026-05-05 11:39 -33.32879 152.41400 29582 ft 483 kts 44°
2026-05-05 11:39 -33.30762 152.44485 30068 ft 482 kts 43°
2026-05-05 11:40 -33.28655 152.47553 30510 ft 482 kts 43°
2026-05-05 11:40 -33.26511 152.50667 30960 ft 482 kts 43°
2026-05-05 11:40 -33.24385 152.53760 31445 ft 480 kts 43°
2026-05-05 11:40 -33.22289 152.56802 31874 ft 480 kts 43°
2026-05-05 11:41 -33.20157 152.59897 32303 ft 479 kts 42°
2026-05-05 11:41 -33.18072 152.62921 32718 ft 479 kts 42°
2026-05-05 11:41 -33.15958 152.65982 33103 ft 479 kts 41°
2026-05-05 11:41 -33.13842 152.69043 33477 ft 478 kts 41°
2026-05-05 11:42 -33.11724 152.72107 33839 ft 478 kts 41°
2026-05-05 11:42 -33.09626 152.75139 34163 ft 478 kts 41°
2026-05-05 11:42 -33.07515 152.78183 34475 ft 477 kts 41°
2026-05-05 11:42 -33.05402 152.81232 34770 ft 477 kts 41°
2026-05-05 11:43 -33.03277 152.84293 35041 ft 478 kts 41°
2026-05-05 11:43 -33.01183 152.87309 35290 ft 479 kts 41°
2026-05-05 11:43 -32.99063 152.90361 35552 ft 479 kts 41°
2026-05-05 11:43 -32.96925 152.93437 35872 ft 479 kts 41°
2026-05-05 11:44 -32.94826 152.96454 36191 ft 479 kts 41°
2026-05-05 11:44 -32.92677 152.99541 36538 ft 479 kts 41°
2026-05-05 11:44 -32.90557 153.02585 36881 ft 478 kts 41°
2026-05-05 11:44 -32.88465 153.05585 37191 ft 478 kts 41°
2026-05-05 11:45 -32.86331 153.08644 37460 ft 478 kts 41°
2026-05-05 11:45 -32.84209 153.11679 37690 ft 479 kts 41°
2026-05-05 11:45 -32.82081 153.14720 37870 ft 481 kts 41°
2026-05-05 11:45 -32.79939 153.17775 38059 ft 483 kts 41°
2026-05-05 11:46 -32.77775 153.20862 38198 ft 486 kts 41°
2026-05-05 11:46 -32.75636 153.23910 38360 ft 488 kts 41°
2026-05-05 11:46 -32.73470 153.27002 38535 ft 489 kts 41°
2026-05-05 11:46 -32.71280 153.30122 38763 ft 490 kts 41°
2026-05-05 11:47 -32.69096 153.33232 38968 ft 491 kts 41°
2026-05-05 11:47 -32.66935 153.36305 39152 ft 492 kts 41°
2026-05-05 11:47 -32.64726 153.39442 39164 ft 493 kts 41°
2026-05-05 11:48 -32.58153 153.48763 39170 ft 494 kts 41°
2026-05-05 11:48 -32.53756 153.54991 39170 ft 493 kts 41°
2026-05-05 11:49 -32.49233 153.61379 39161 ft 495 kts 40°
2026-05-05 11:49 -32.44920 153.67464 39153 ft 496 kts 40°
2026-05-05 11:50 -32.40511 153.73677 39167 ft 492 kts 40°
2026-05-05 11:50 -32.36087 153.79894 39159 ft 496 kts 40°
2026-05-05 11:51 -32.31660 153.86107 39158 ft 493 kts 40°
2026-05-05 11:51 -32.27264 153.92268 39155 ft 493 kts 40°
2026-05-05 11:52 -32.22831 153.98462 39154 ft 494 kts 39°
2026-05-05 11:52 -32.18383 154.04675 39150 ft 494 kts 39°
2026-05-05 11:53 -32.13981 154.10817 39155 ft 494 kts 39°
2026-05-05 11:53 -32.09561 154.16966 39153 ft 494 kts 39°
2026-05-05 11:54 -32.05087 154.23180 39158 ft 495 kts 39°
2026-05-05 11:54 -32.00615 154.29381 39158 ft 495 kts 39°
2026-05-05 11:55 -31.96187 154.35513 39155 ft 495 kts 39°
2026-05-05 11:55 -31.91741 154.41663 39150 ft 495 kts 39°
2026-05-05 11:56 -31.87277 154.47829 39150 ft 494 kts 39°
2026-05-05 11:56 -31.82827 154.53961 39150 ft 495 kts 39°
2026-05-05 11:57 -31.78356 154.60110 39147 ft 496 kts 39°
2026-05-05 11:57 -31.73863 154.66286 39149 ft 495 kts 38°
2026-05-05 11:58 -31.69422 154.72377 39149 ft 495 kts 38°
2026-05-05 11:58 -31.64935 154.78522 39152 ft 494 kts 38°
2026-05-05 11:59 -31.60452 154.84642 39154 ft 496 kts 38°
2026-05-05 11:59 -31.55981 154.90745 39147 ft 497 kts 38°
2026-05-05 12:00 -31.51476 154.96887 39147 ft 495 kts 38°
2026-05-05 12:00 -31.46990 155.02988 39144 ft 496 kts 38°
2026-05-05 12:01 -31.42497 155.09085 39141 ft 497 kts 38°
2026-05-05 12:01 -31.37990 155.15196 39144 ft 497 kts 38°
2026-05-05 12:02 -31.33498 155.21281 39136 ft 496 kts 38°
2026-05-05 12:02 -31.28972 155.27400 39142 ft 496 kts 38°
2026-05-05 12:03 -31.24467 155.33476 39150 ft 497 kts 38°
2026-05-05 12:03 -31.19936 155.39575 39149 ft 500 kts 38°
2026-05-05 12:04 -31.15407 155.45671 39148 ft 499 kts 38°
2026-05-05 12:04 -31.10857 155.51784 39145 ft 499 kts 38°
2026-05-05 12:05 -31.06294 155.57899 39142 ft 500 kts 38°
2026-05-05 12:05 -31.01737 155.64000 39141 ft 501 kts 38°
2026-05-05 12:06 -30.97176 155.70094 39132 ft 501 kts 38°
2026-05-05 12:06 -30.92583 155.76227 39134 ft 502 kts 37°
2026-05-05 12:07 -30.88014 155.82320 39133 ft 499 kts 37°
2026-05-05 12:07 -30.83428 155.88408 39130 ft 500 kts 38°
2026-05-05 12:08 -30.78843 155.94501 39130 ft 503 kts 38°
2026-05-05 12:08 -30.74261 156.00581 39128 ft 502 kts 37°
2026-05-05 12:09 -30.69660 156.06677 39129 ft 503 kts 37°
2026-05-05 12:09 -30.65056 156.12766 39127 ft 502 kts 37°
2026-05-05 12:10 -30.60473 156.18810 39124 ft 501 kts 37°
2026-05-05 12:10 -30.55871 156.24864 39124 ft 503 kts 37°
2026-05-05 12:11 -30.51245 156.30939 39122 ft 502 kts 37°
2026-05-05 12:11 -30.46625 156.37009 39117 ft 503 kts 37°
2026-05-05 12:12 -30.41991 156.43092 39119 ft 503 kts 37°
2026-05-05 12:12 -30.37348 156.49170 39119 ft 506 kts 37°
2026-05-05 12:13 -30.32690 156.55234 39114 ft 506 kts 38°
2026-05-05 12:13 -30.28049 156.61305 39114 ft 507 kts 38°
2026-05-05 12:14 -30.23381 156.67412 39107 ft 505 kts 37°
2026-05-05 12:14 -30.18730 156.73433 39113 ft 506 kts 37°
2026-05-05 12:15 -30.14032 156.79553 39115 ft 508 kts 37°
2026-05-05 12:15 -30.09350 156.85623 39110 ft 508 kts 37°
2026-05-05 12:16 -30.04680 156.91678 39113 ft 506 kts 37°
2026-05-05 12:16 -29.99989 156.97737 39108 ft 506 kts 37°
2026-05-05 12:17 -29.95320 157.03772 39111 ft 507 kts 37°
2026-05-05 12:17 -29.90651 157.09798 39109 ft 506 kts 37°
2026-05-05 12:18 -29.85922 157.15858 39105 ft 510 kts 37°
2026-05-05 12:18 -29.81220 157.21936 39110 ft 508 kts 37°
2026-05-05 12:19 -29.76531 157.27939 39106 ft 507 kts 37°
2026-05-05 12:19 -29.71823 157.33974 39102 ft 510 kts 37°
2026-05-05 12:20 -29.67112 157.39986 39100 ft 504 kts 37°
2026-05-05 12:20 -29.62437 157.45973 39109 ft 505 kts 37°
2026-05-05 12:21 -29.57754 157.51956 39104 ft 508 kts 37°
2026-05-05 12:21 -29.53016 157.57976 39099 ft 508 kts 37°
2026-05-05 12:22 -29.48306 157.63982 39099 ft 509 kts 37°
2026-05-05 12:22 -29.43538 157.70024 39102 ft 509 kts 36°
2026-05-05 12:23 -29.38832 157.76003 39102 ft 508 kts 36°
2026-05-05 12:23 -29.34059 157.82024 39099 ft 509 kts 36°
2026-05-05 12:24 -29.29330 157.87997 39093 ft 509 kts 37°
2026-05-05 12:24 -29.24605 157.93977 39087 ft 508 kts 36°
2026-05-05 12:25 -29.19880 157.99940 39086 ft 507 kts 36°
2026-05-05 12:25 -29.15127 158.05911 39088 ft 510 kts 36°
2026-05-05 12:26 -29.10345 158.11890 39088 ft 509 kts 37°
2026-05-05 12:26 -29.05571 158.17906 39083 ft 511 kts 36°
2026-05-05 12:27 -29.00810 158.23885 39080 ft 510 kts 37°
2026-05-05 12:27 -28.96037 158.29845 39082 ft 510 kts 37°
2026-05-05 12:28 -28.91292 158.35774 39080 ft 510 kts 37°
2026-05-05 12:28 -28.86505 158.41748 39079 ft 513 kts 37°
2026-05-05 12:29 -28.81691 158.47752 39079 ft 512 kts 37°
2026-05-05 12:29 -28.76863 158.53732 39075 ft 513 kts 37°
2026-05-05 12:30 -28.72086 158.59674 39074 ft 512 kts 37°
2026-05-05 12:30 -28.67244 158.65672 39071 ft 513 kts 37°
2026-05-05 12:31 -28.62425 158.71640 39071 ft 512 kts 37°
2026-05-05 12:31 -28.57642 158.77576 39072 ft 515 kts 37°
2026-05-05 12:32 -28.52799 158.83554 39072 ft 512 kts 37°
2026-05-05 12:32 -28.47960 158.89502 39068 ft 515 kts 37°
2026-05-05 12:33 -28.43121 158.95477 39069 ft 515 kts 37°
2026-05-05 12:33 -28.38273 159.01433 39065 ft 513 kts 36°
2026-05-05 12:34 -28.33435 159.07367 39070 ft 513 kts 37°
2026-05-05 12:34 -28.28595 159.13284 39069 ft 514 kts 37°
2026-05-05 12:35 -28.23792 159.19191 39068 ft 513 kts 37°
2026-05-05 12:35 -28.18934 159.25110 39065 ft 513 kts 37°
2026-05-05 12:36 -28.14066 159.31052 39071 ft 515 kts 37°
2026-05-05 12:36 -28.09217 159.36968 39067 ft 512 kts 37°
2026-05-05 12:37 -28.04371 159.42871 39067 ft 513 kts 37°
2026-05-05 12:37 -27.99535 159.48732 39068 ft 515 kts 38°
2026-05-05 12:38 -27.94673 159.54658 39068 ft 512 kts 37°
2026-05-05 12:38 -27.89787 159.60559 39066 ft 512 kts 37°
2026-05-05 12:39 -27.84928 159.66400 39060 ft 514 kts 37°
2026-05-05 12:39 -27.80025 159.72354 39054 ft 515 kts 37°
2026-05-05 12:40 -27.75152 159.78244 39059 ft 516 kts 37°
2026-05-05 12:40 -27.70247 159.84157 39069 ft 515 kts 37°
2026-05-05 12:41 -27.65339 159.90042 39070 ft 516 kts 37°
2026-05-05 12:41 -27.60453 159.95906 39065 ft 516 kts 37°
2026-05-05 12:42 -27.55524 160.01816 39075 ft 519 kts 38°
2026-05-05 12:42 -27.50596 160.07727 39071 ft 517 kts 38°
2026-05-05 12:43 -27.45679 160.13606 39068 ft 521 kts 38°
2026-05-05 12:43 -27.40710 160.19540 39069 ft 519 kts 39°
2026-05-05 12:44 -27.35760 160.25449 39073 ft 519 kts 38°
2026-05-05 12:44 -27.30822 160.31357 39069 ft 520 kts 38°
2026-05-05 12:45 -27.25861 160.37254 39070 ft 521 kts 38°
2026-05-05 12:45 -27.20906 160.43141 39071 ft 520 kts 38°
2026-05-05 12:46 -27.15939 160.49028 39070 ft 520 kts 38°
2026-05-05 12:46 -27.10962 160.54923 39070 ft 521 kts 38°
2026-05-05 12:47 -27.05975 160.60820 39070 ft 523 kts 39°
2026-05-05 12:47 -27.00994 160.66701 39064 ft 523 kts 38°
2026-05-05 12:48 -26.95965 160.72636 39071 ft 524 kts 38°
2026-05-05 12:48 -26.90992 160.78496 39070 ft 522 kts 38°
2026-05-05 12:49 -26.85972 160.84402 39069 ft 522 kts 38°
2026-05-05 12:49 -26.80997 160.90243 39071 ft 523 kts 38°
2026-05-05 12:50 -26.75991 160.96111 39075 ft 524 kts 38°
2026-05-05 12:50 -26.70962 161.02004 39072 ft 524 kts 38°
2026-05-05 12:51 -26.65901 161.07927 39074 ft 525 kts 38°
2026-05-05 12:51 -26.60883 161.13792 39072 ft 523 kts 38°
2026-05-05 12:52 -26.55835 161.19684 39068 ft 524 kts 38°
2026-05-05 12:52 -26.50819 161.25528 39070 ft 525 kts 39°
2026-05-05 12:53 -26.45783 161.31386 39070 ft 525 kts 38°
2026-05-05 12:53 -26.40707 161.37285 39069 ft 526 kts 39°
2026-05-05 12:54 -26.33133 161.46083 39068 ft 525 kts 39°
2026-05-05 12:55 -26.28069 161.51949 39068 ft 526 kts 39°
2026-05-05 12:55 -26.22993 161.57828 39069 ft 524 kts 39°
2026-05-05 12:56 -26.17942 161.63650 39068 ft 526 kts 39°
2026-05-05 12:56 -26.12858 161.69518 39062 ft 524 kts 38°
2026-05-05 12:57 -26.07785 161.75354 39065 ft 527 kts 39°
2026-05-05 12:57 -26.02713 161.81192 39066 ft 528 kts 38°
2026-05-05 12:58 -25.97623 161.87047 39066 ft 525 kts 38°
2026-05-05 12:58 -25.92528 161.92888 39061 ft 526 kts 38°
2026-05-05 12:59 -25.87445 161.98711 39065 ft 527 kts 39°
2026-05-05 12:59 -25.82370 162.04523 39065 ft 527 kts 39°
2026-05-05 13:00 -25.74690 162.13292 39060 ft 530 kts 39°
2026-05-05 13:01 -25.64444 162.24977 39060 ft 530 kts 39°
2026-05-05 13:01 -25.59292 162.30839 39060 ft 530 kts 39°
2026-05-05 13:02 -25.54171 162.36659 39054 ft 529 kts 39°
2026-05-05 13:02 -25.49007 162.42513 39053 ft 531 kts 40°
2026-05-05 13:03 -25.43887 162.48322 39055 ft 530 kts 39°
2026-05-05 13:03 -25.38725 162.54161 39055 ft 531 kts 39°
2026-05-05 13:04 -25.33578 162.59975 39053 ft 532 kts 40°
2026-05-05 13:04 -25.28428 162.65794 39052 ft 530 kts 39°
2026-05-05 13:05 -25.23262 162.71619 39050 ft 529 kts 39°
2026-05-05 13:05 -25.18094 162.77432 39053 ft 530 kts 39°
2026-05-05 13:06 -25.12962 162.83202 39053 ft 531 kts 39°
2026-05-05 13:06 -25.07786 162.89014 39053 ft 531 kts 39°
2026-05-05 13:07 -25.02619 162.94812 39052 ft 529 kts 39°
2026-05-05 13:07 -24.97544 163.00491 39050 ft 530 kts 39°
2026-05-05 13:08 -24.92375 163.06271 39047 ft 529 kts 39°
2026-05-05 13:08 -24.87203 163.12041 39047 ft 529 kts 39°
2026-05-05 13:09 -24.82048 163.17776 39046 ft 530 kts 40°
2026-05-05 13:09 -24.76846 163.23569 39042 ft 531 kts 40°
2026-05-05 13:10 -24.71670 163.29324 39046 ft 531 kts 39°
2026-05-05 13:10 -24.66491 163.35068 39045 ft 532 kts 40°
2026-05-05 13:11 -24.61297 163.40828 39047 ft 531 kts 39°
2026-05-05 13:11 -24.56076 163.46611 39046 ft 532 kts 40°
2026-05-05 13:12 -24.50876 163.52356 39045 ft 533 kts 40°
2026-05-05 13:12 -24.45642 163.58139 39046 ft 533 kts 40°
2026-05-05 13:13 -24.40418 163.63901 39047 ft 534 kts 40°
2026-05-05 13:13 -24.35199 163.69650 39045 ft 535 kts 39°
2026-05-05 13:14 -24.29951 163.75421 39047 ft 535 kts 39°
2026-05-05 13:14 -24.24691 163.81201 39045 ft 536 kts 40°
2026-05-05 13:15 -24.19469 163.86935 39048 ft 537 kts 40°
2026-05-05 13:15 -24.14170 163.92744 39047 ft 536 kts 40°
2026-05-05 13:16 -24.08940 163.98477 39044 ft 535 kts 40°
2026-05-05 13:16 -24.03644 164.04260 39048 ft 537 kts 40°
2026-05-05 13:17 -23.98390 164.10001 39047 ft 536 kts 40°
2026-05-05 13:17 -23.93133 164.15736 39047 ft 535 kts 40°
2026-05-05 13:18 -23.87858 164.21480 39045 ft 535 kts 40°
2026-05-05 13:18 -23.82613 164.27193 39045 ft 535 kts 40°
2026-05-05 13:19 -23.77340 164.32918 39034 ft 532 kts 40°
2026-05-05 13:19 -23.74715 164.35768 38635 ft 532 kts 40°
2026-05-05 13:19 -23.72074 164.38628 37675 ft 540 kts 40°
2026-05-05 13:20 -23.69394 164.41525 36672 ft 546 kts 41°
2026-05-05 13:20 -23.66709 164.44435 35945 ft 546 kts 41°
2026-05-05 13:20 -23.64038 164.47330 35294 ft 544 kts 41°
2026-05-05 13:20 -23.61377 164.50215 34657 ft 542 kts 41°
2026-05-05 13:21 -23.58720 164.53091 34006 ft 539 kts 42°
2026-05-05 13:21 -23.56054 164.55975 33365 ft 537 kts 41°
2026-05-05 13:21 -23.53427 164.58813 32761 ft 534 kts 42°
2026-05-05 13:21 -23.50794 164.61656 32155 ft 532 kts 42°
2026-05-05 13:22 -23.48183 164.64471 31526 ft 530 kts 42°
2026-05-05 13:22 -23.45541 164.67322 30880 ft 528 kts 42°
2026-05-05 13:22 -23.42954 164.70110 30236 ft 527 kts 42°
2026-05-05 13:22 -23.40359 164.72906 29533 ft 527 kts 43°
2026-05-05 13:23 -23.37768 164.75693 28862 ft 525 kts 43°
2026-05-05 13:23 -23.35184 164.78471 28282 ft 522 kts 43°
2026-05-05 13:23 -23.32598 164.81253 28019 ft 516 kts 43°
2026-05-05 13:23 -23.30046 164.83997 28006 ft 518 kts 43°
2026-05-05 13:24 -23.24913 164.89510 28009 ft 519 kts 43°
2026-05-05 13:24 -23.19773 164.95020 27975 ft 522 kts 43°
2026-05-05 13:25 -23.17183 164.97794 27662 ft 523 kts 43°
2026-05-05 13:25 -23.14593 165.00565 26954 ft 522 kts 43°
2026-05-05 13:25 -23.12027 165.03307 26300 ft 517 kts 44°
2026-05-05 13:25 -23.09480 165.06029 25907 ft 510 kts 44°
2026-05-05 13:26 -23.06988 165.08694 25658 ft 505 kts 44°
2026-05-05 13:26 -23.04466 165.11392 25243 ft 505 kts 44°
2026-05-05 13:26 -23.01986 165.14041 24592 ft 503 kts 44°
2026-05-05 13:26 -22.99477 165.16717 24011 ft 498 kts 44°
2026-05-05 13:27 -22.97052 165.19302 23479 ft 493 kts 44°
2026-05-05 13:27 -22.94605 165.21910 22947 ft 488 kts 45°
2026-05-05 13:27 -22.92193 165.24478 22416 ft 482 kts 45°
2026-05-05 13:27 -22.89800 165.27026 21862 ft 478 kts 45°
2026-05-05 13:28 -22.87439 165.29541 21327 ft 474 kts 45°
2026-05-05 13:28 -22.85119 165.32010 21040 ft 464 kts 45°
2026-05-05 13:28 -22.82828 165.34448 20996 ft 467 kts 45°
2026-05-05 13:28 -22.80500 165.36926 20972 ft 467 kts 45°
2026-05-05 13:29 -22.78176 165.39397 20756 ft 463 kts 45°
2026-05-05 13:29 -22.75903 165.41812 20279 ft 461 kts 45°
2026-05-05 13:29 -22.73596 165.44261 19759 ft 459 kts 45°
2026-05-05 13:29 -22.71334 165.46660 19272 ft 455 kts 45°
2026-05-05 13:30 -22.69088 165.49042 18694 ft 451 kts 45°
2026-05-05 13:30 -22.66880 165.51381 18053 ft 445 kts 45°
2026-05-05 13:30 -22.64684 165.53706 17390 ft 441 kts 45°
2026-05-05 13:30 -22.62493 165.56024 16722 ft 434 kts 45°
2026-05-05 13:31 -22.60363 165.58272 16050 ft 430 kts 45°
2026-05-05 13:31 -22.58224 165.60532 15390 ft 425 kts 45°
2026-05-05 13:31 -22.56145 165.62727 14752 ft 420 kts 45°
2026-05-05 13:31 -22.54062 165.64929 14127 ft 415 kts 45°
2026-05-05 13:32 -22.52013 165.67094 13590 ft 407 kts 45°
2026-05-05 13:32 -22.50027 165.69191 13127 ft 397 kts 45°
2026-05-05 13:32 -22.48061 165.71266 12669 ft 388 kts 45°
2026-05-05 13:32 -22.46126 165.73222 12233 ft 380 kts 38°
2026-05-05 13:33 -22.43834 165.74585 11791 ft 369 kts 21°
2026-05-05 13:33 -22.41445 165.75487 11428 ft 360 kts 18°
2026-05-05 13:33 -22.39105 165.76291 11141 ft 344 kts 18°
2026-05-05 13:33 -22.36850 165.77046 10892 ft 330 kts 18°
2026-05-05 13:34 -22.34714 165.77753 10664 ft 316 kts 18°
2026-05-05 13:34 -22.32626 165.78436 10446 ft 304 kts 18°
2026-05-05 13:34 -22.30626 165.79085 10242 ft 293 kts 18°
2026-05-05 13:34 -22.28711 165.79698 10033 ft 282 kts 18°
2026-05-05 13:35 -22.26862 165.80284 9849 ft 272 kts 18°
2026-05-05 13:35 -22.25077 165.80841 9675 ft 262 kts 18°
2026-05-05 13:35 -22.23348 165.81377 9508 ft 253 kts 18°
2026-05-05 13:35 -22.21674 165.81891 9282 ft 248 kts 18°
2026-05-05 13:36 -22.20012 165.82402 8988 ft 246 kts 18°
2026-05-05 13:36 -22.18371 165.82904 8692 ft 244 kts 18°
2026-05-05 13:36 -22.16729 165.83405 8397 ft 243 kts 18°
2026-05-05 13:36 -22.15113 165.83894 8110 ft 240 kts 18°
2026-05-05 13:37 -22.13524 165.84370 7802 ft 238 kts 18°
2026-05-05 13:37 -22.11908 165.84851 7459 ft 236 kts 18°
2026-05-05 13:37 -22.10348 165.85338 7114 ft 235 kts 18°
2026-05-05 13:37 -22.08765 165.85818 6799 ft 234 kts 18°
2026-05-05 13:38 -22.07198 165.86285 6554 ft 233 kts 18°
2026-05-05 13:38 -22.05647 165.86743 6307 ft 232 kts 18°
2026-05-05 13:38 -22.04093 165.87203 6048 ft 230 kts 18°
2026-05-05 13:38 -22.02536 165.87666 5795 ft 229 kts 17°
2026-05-05 13:39 -22.00953 165.87938 5532 ft 230 kts
2026-05-05 13:39 -21.99349 165.87997 5285 ft 230 kts
2026-05-05 13:39 -21.97825 165.88356 5001 ft 225 kts 33°
2026-05-05 13:39 -21.96748 165.89529 4716 ft 220 kts 65°
2026-05-05 13:40 -21.96427 165.91142 4189 ft 230 kts 91°
2026-05-05 13:40 -21.96542 165.92856 3845 ft 231 kts 96°
2026-05-05 13:40 -21.96736 165.94560 3705 ft 224 kts 93°
2026-05-05 13:40 -21.96627 165.96179 3563 ft 217 kts 81°
2026-05-05 13:41 -21.96307 165.97754 3434 ft 211 kts 76°
2026-05-05 13:41 -21.95921 165.99248 3301 ft 205 kts 75°
2026-05-05 13:41 -21.95540 166.00694 3185 ft 199 kts 76°
2026-05-05 13:41 -21.95175 166.02113 3070 ft 193 kts 76°
2026-05-05 13:42 -21.94818 166.03497 2942 ft 186 kts 76°
2026-05-05 13:42 -21.94484 166.04794 2815 ft 178 kts 76°
2026-05-05 13:42 -21.94166 166.06052 2671 ft 171 kts 76°
2026-05-05 13:42 -21.93912 166.07259 2492 ft 159 kts 93°
2026-05-05 13:43 -21.94203 166.08372 2296 ft 150 kts 114°
2026-05-05 13:43 -21.94700 166.09323 2064 ft 146 kts 120°
2026-05-05 13:43 -21.95233 166.10242 1865 ft 142 kts 121°
2026-05-05 13:43 -21.95765 166.11157 1869 ft 144 kts 120°
2026-05-05 13:44 -21.96279 166.12089 1738 ft 145 kts 119°
2026-05-05 13:44 -21.96796 166.13010 1558 ft 144 kts 120°
2026-05-05 13:44 -21.97321 166.13908 1363 ft 137 kts 120°
2026-05-05 13:44 -21.97779 166.14774 1165 ft 132 kts 116°
2026-05-05 13:45 -21.98226 166.15639 993 ft 132 kts 119°
2026-05-05 13:45 -21.98721 166.16489 840 ft 133 kts 121°
2026-05-05 13:45 -21.99220 166.17331 673 ft 134 kts 121°
2026-05-05 13:45 -21.99712 166.18192 494 ft 136 kts 120°
2026-05-05 13:46 -22.00203 166.19064 289 ft 137 kts 120°
2026-05-05 13:46 -22.00690 166.19949 104 ft 139 kts 120°
2026-05-05 13:46 -22.01156 166.20792 56 ft 102 kts 120°
2026-05-05 13:46 -22.01374 166.21164 64 ft 17 kts 123°
2026-05-05 13:47 -22.01438 166.21275 66 ft 18 kts 121°
2026-05-05 13:47 -22.01513 166.21408 68 ft 21 kts 121°
2026-05-05 13:47 -22.01585 166.21539 73 ft 18 kts 120°
2026-05-05 13:47 -22.01612 166.21632 75 ft 6 kts 49°
2026-05-05 13:48 -22.01572 166.21657 78 ft 8 kts 25°
2026-05-05 13:48 -22.01500 166.21689 82 ft 6 kts 30°
2026-05-05 13:48 -22.01490 166.21693 83 ft 0 kts 27°
2026-05-05 13:48 -22.01477 166.21701 84 ft 3 kts 29°
2026-05-05 13:49 -22.01466 166.21707 85 ft 0 kts 30°
2026-05-05 13:49 -22.01458 166.21712 86 ft 0 kts 30°